EW8080 Weather Reports


Display with metric or nautical units.
time (UTC)temp
F
wind
direction
speed
MPH
gust
MPH
rain 1hr
in
rain 24hr
in
rain mn
in
humidity
%
barometer
mb
20260906161959 71 21 9.0 21.0 0.00 0.01 0.01 62 1015.1
20260906160959 70 24 8.0 18.0 0.00 0.01 0.01 63 1015.1
20260906155959 70 19 7.0 20.0 0.00 0.01 0.01 63 1015.1
20260906154959 69 37 7.0 30.0 0.00 0.01 0.01 66 1015.4
20260906153959 70 349 15.0 30.0 0.00 0.01 0.01 62 1015.2
20260906153020 72 26 8.0 17.0 0.00 0.01 0.01 64 1015.2
20260906151959 72 24 7.0 20.0 0.00 0.01 0.01 65 1015.1
20260906151000 71 27 6.0 20.0 0.00 0.01 0.01 67 1015.0
20260906150021 70 360 14.0 21.0 0.00 0.01 0.01 62 1014.9
20260906145000 71 357 10.0 21.0 0.00 0.01 0.01 62 1015.1
20260906144001 71 352 14.0 21.0 0.00 0.01 0.01 62 1015.2
20260906143000 71 12 9.0 16.0 0.00 0.01 0.01 67 1015.1
20260906142000 70 35 4.0 15.0 0.00 0.01 0.01 73 1014.9
20260906141021 70 41 5.0 17.0 0.00 0.01 0.01 70 1015.0
20260906140000 67 355 8.0 17.0 0.00 0.01 0.01 79 1015.1
20260906135000 65 3 2.0 14.0 0.00 0.01 0.01 86 1015.1
20260906134000 65 336 7.0 16.0 0.00 0.01 0.01 85 1014.8
20260906133000 64 333 8.0 16.0 0.00 0.01 0.01 86 1015.0
20260906132000 64 343 9.0 14.0 0.00 0.01 0.01 85 1015.1
20260906131000 64 346 7.0 11.0 0.00 0.01 0.01 85 1015.0
20260906130000 64 345 7.0 11.0 0.00 0.01 0.01 84 1015.1
20260906125000 64 286 3.0 10.0 0.00 0.01 0.01 86 1014.9
20260906124000 63 348 4.0 8.0 0.00 0.01 0.01 88 1014.6
20260906123021 62 348 6.0 8.0 0.00 0.01 0.01 90 1014.9
20260906122000 62 305 2.0 7.0 0.00 0.01 0.01 91 1014.7
20260906121001 61 347 3.0 7.0 0.00 0.01 0.01 91 1014.5
20260906120000 61 317 4.0 7.0 0.00 0.01 0.01 90 1014.6
20260906115001 61 336 4.0 7.0 0.01 0.01 0.01 90 1014.6
20260906114022 60 339 4.0 7.0 0.01 0.01 0.01 90 1014.4
20260906113022 60 30 3.0 5.0 0.00 0.00 0.00 89 1014.4
20260906112001 60 333 2.0 8.0 0.00 0.00 0.00 89 1014.4
20260906111001 60 25 2.0 9.0 0.00 0.00 0.00 88 1014.2
20260906110000 60 350 6.0 9.0 0.00 0.00 0.00 88 1014.1
20260906105001 60 353 7.0 7.0 0.00 0.00 0.00 87 1014.1
20260906104002 61 348 3.0 8.0 0.00 0.00 0.00 87 1013.7
20260906103001 61 109 1.0 8.0 0.00 0.00 0.00 87 1013.4
20260906102022 61 10 2.0 7.0 0.00 0.00 0.00 88 1013.7
20260906101001 61 340 2.0 10.0 0.00 0.00 0.00 89 1013.6
20260906100001 61 27 3.0 10.0 0.00 0.00 0.00 89 1013.4
20260906095001 61 328 4.0 10.0 0.00 0.00 0.00 90 1013.2
20260906094001 60 24 3.0 7.0 0.00 0.00 0.00 91 1013.4
20260906093001 60 45 2.0 7.0 0.00 0.00 0.00 91 1013.2
20260906092001 60 35 4.0 7.0 0.00 0.00 0.00 91 1013.0
20260906091023 61 359 3.0 6.0 0.00 0.00 0.00 90 1012.9
20260906090002 61 355 4.0 5.0 0.00 0.00 0.00 90 1012.6
20260906085025 61 351 3.0 5.0 0.00 0.00 0.00 91 1012.6
20260906084001 61 59 1.0 5.0 0.00 0.00 0.00 90 1012.8
20260906083023 61 27 1.0 6.0 0.00 0.00 0.00 90 1012.7
20260906082002 61 23 3.0 6.0 0.00 0.00 0.00 90 1012.6
20260906081002 61 350 4.0 6.0 0.00 0.00 0.00 91 1012.4
20260906080002 61 39 4.0 7.0 0.00 0.00 0.00 91 1012.4
20260906075023 61 42 3.0 7.0 0.00 0.00 0.00 91 1012.4
20260906074002 61 350 2.0 6.0 0.00 0.00 0.00 91 1012.3
20260906073002 61 24 3.0 5.0 0.00 0.00 0.00 91 1012.5
20260906072002 61 330 2.0 6.0 0.00 0.00 0.00 91 1012.4
20260906071002 61 359 2.0 8.0 0.00 0.00 0.00 91 1012.4
20260906070002 61 34 3.0 8.0 0.00 0.00 0.00 91 1012.5
20260906065003 62 357 3.0 9.0 0.00 0.00 0.00 91 1012.4
20260906064023 62 356 4.0 9.0 0.00 0.00 0.00 91 1012.2
20260906063023 62 2 5.0 8.0 0.00 0.00 0.00 90 1012.6
20260906062002 62 3 5.0 8.0 0.00 0.00 0.00 91 1012.4
20260906061002 62 349 5.0 8.0 0.00 0.00 0.00 90 1012.5
20260906060002 62 343 5.0 9.0 0.00 0.00 0.00 90 1012.5
20260906055003 62 355 8.0 9.0 0.00 0.00 0.00 90 1012.7
20260906054024 62 12 4.0 8.0 0.00 0.00 0.00 89 1012.8
20260906053002 62 1 8.0 8.0 0.00 0.00 0.00 89 1012.7
20260906052023 62 353 5.0 9.0 0.00 0.00 0.00 89 1012.8
20260906051003 62 324 3.0 9.0 0.00 0.00 0.00 89 1012.8
20260906050003 62 24 3.0 13.0 0.00 0.00 0.00 89 1012.7
20260906045003 62 342 3.0 13.0 0.00 0.00 0.00 89 1012.7
20260906044003 62 348 7.0 8.0 0.00 0.00 0.00 88 1012.7
20260906043024 62 4 4.0 10.0 0.00 0.00 0.00 88 1012.5
20260906042003 62 359 4.0 10.0 0.00 0.00 0.00 88 1012.5
20260906041024 62 4 5.0 7.0 0.00 0.00 0.00 88 1012.5
20260906040003 62 7 4.0 7.0 0.00 0.00 0.00 87 1012.4
20260906034956 62 2 3.0 8.0 0.00 0.00 0.00 87 1012.5
20260906033956 62 3 3.0 8.0 0.00 0.00 0.00 87 1012.5
20260906032956 63 354 5.0 7.0 0.00 0.00 0.00 87 1012.4
20260906031956 63 337 2.0 7.0 0.00 0.00 0.00 86 1012.4
20260906030956 63 339 2.0 7.0 0.00 0.00 0.00 86 1012.3
20260906025956 63 331 4.0 7.0 0.00 0.00 0.00 86 1012.4
20260906025018 63 317 3.0 5.0 0.00 0.00 0.00 86 1012.5
20260906023956 64 278 3.0 5.0 0.00 0.00 0.00 84 1012.6
20260906022956 64 334 1.0 5.0 0.00 0.00 0.00 84 1012.6
20260906022017 64 333 0.0 4.0 0.00 0.00 0.00 83 1012.4
20260906021017 64 339 1.0 5.0 0.00 0.00 0.00 83 1012.4
20260906015956 64 45 1.0 5.0 0.00 0.00 0.00 83 1012.4
20260906015017 64 1 2.0 5.0 0.00 0.00 0.00 83 1012.5
20260906013956 64 3 1.0 5.0 0.00 0.00 0.00 83 1012.5
20260906012956 64 351 2.0 5.0 0.00 0.00 0.00 84 1012.3
20260906011956 64 320 3.0 4.0 0.00 0.00 0.00 84 1012.3
20260906010956 64 92 0.0 7.0 0.00 0.00 0.00 84 1012.3
20260906005956 64 75 1.0 7.0 0.00 0.00 0.00 84 1012.3
20260906004957 63 347 4.0 7.0 0.00 0.00 0.00 85 1012.2
20260906004018 64 24 1.0 4.0 0.00 0.00 0.00 84 1012.2
20260906002956 63 50 1.0 4.0 0.00 0.00 0.00 83 1012.1
20260906001957 64 337 2.0 3.0 0.00 0.00 0.00 83 1012.1
20260906000957 64 341 1.0 3.0 0.00 0.00 0.00 82 1012.1
20260905235957 64 94 0.0 2.0 0.00 0.00 0.00 81 1012.1
20260905234958 64 100 1.0 2.0 0.00 0.00 0.00 81 1012.0
20260905233957 64 62 1.0 2.0 0.00 0.00 0.00 80 1011.8
20260905232957 65 107 0.0 3.0 0.00 0.00 0.00 80 1011.9
20260905231957 65 170 0.0 3.0 0.00 0.00 0.00 80 1011.9
20260905230957 65 142 0.0 3.0 0.00 0.00 0.00 79 1011.9
20260905230018 66 294 0.0 4.0 0.00 0.00 0.00 79 1012.0
20260905224957 66 26 2.0 7.0 0.00 0.00 0.00 78 1011.9
20260905223957 66 62 1.0 8.0 0.00 0.00 0.00 78 1011.9
20260905222957 67 46 2.0 10.0 0.00 0.00 0.00 77 1012.0
20260905221957 67 19 3.0 10.0 0.00 0.00 0.00 77 1012.0
20260905220957 67 60 3.0 8.0 0.00 0.00 0.00 77 1011.8
20260905215957 68 89 3.0 8.0 0.00 0.00 0.00 77 1011.6
20260905214957 68 48 4.0 11.0 0.00 0.00 0.00 76 1011.3
20260905213958 68 87 4.0 13.0 0.00 0.00 0.00 76 1011.1
20260905212957 69 21 6.0 13.0 0.00 0.00 0.00 76 1011.1
20260905211958 69 86 3.0 13.0 0.00 0.00 0.00 76 1010.6
20260905210958 69 36 6.0 13.0 0.00 0.00 0.00 75 1011.0
20260905205958 70 88 5.0 10.0 0.00 0.00 0.00 75 1010.7
20260905205019 70 52 5.0 12.0 0.00 0.00 0.00 74 1010.6
20260905203958 71 36 6.0 12.0 0.00 0.00 0.00 72 1010.4
20260905202958 71 59 4.0 12.0 0.00 0.00 0.00 73 1010.3
20260905201958 72 85 6.0 11.0 0.00 0.00 0.00 73 1010.3
20260905200958 71 28 3.0 13.0 0.00 0.00 0.00 74 1010.2
20260905195958 72 17 8.0 13.0 0.00 0.00 0.00 73 1010.1
20260905194959 72 23 4.0 8.0 0.00 0.00 0.00 75 1010.3
20260905193958 73 106 3.0 15.0 0.00 0.00 0.00 74 1010.4
20260905192958 74 101 6.0 15.0 0.00 0.00 0.00 73 1010.1
20260905191958 73 13 5.0 16.0 0.00 0.00 0.00 73 1010.3
20260905190958 72 33 8.0 16.0 0.00 0.00 0.00 74 1010.1
20260905190019 72 348 11.0 15.0 0.00 0.00 0.00 71 1010.1
20260905184958 74 43 6.0 15.0 0.00 0.00 0.00 71 1010.1
20260905183958 74 39 5.0 15.0 0.00 0.00 0.00 73 1010.1
20260905182958 74 3 5.0 12.0 0.00 0.00 0.00 70 1010.3
20260905181958 74 13 2.0 12.0 0.00 0.00 0.00 74 1010.2
20260905180959 73 66 4.0 13.0 0.00 0.00 0.00 73 1010.3
20260905175959 74 8 5.0 13.0 0.00 0.00 0.00 71 1010.4
20260905174959 74 43 4.0 10.0 0.00 0.00 0.00 72 1010.3
20260905173959 74 353 6.0 10.0 0.00 0.00 0.00 70 1010.1
20260905172959 74 34 6.0 10.0 0.00 0.00 0.00 74 1009.9
20260905171959 73 45 5.0 14.0 0.00 0.00 0.00 73 1010.1
20260905170959 73 56 5.0 14.0 0.00 0.00 0.00 73 1010.1
20260905170000 74 220 4.0 13.0 0.00 0.00 0.00 72 1010.0
20260905164959 74 16 4.0 13.0 0.00 0.00 0.00 71 1010.1
20260905163959 74 54 2.0 17.0 0.00 0.00 0.00 71 1010.1
20260905162959 74 354 8.0 17.0 0.00 0.00 0.00 71 1010.0